Location: Peebles
(55.6412°N, 3.1714°W)
Time: 23:16:23
(UTC+01:00)

NOAA 16 DEB - Pass Details

Date: 04 July 2022
Orbit: 811 x 875 km, 98.7° (Epoch: 15 August)

Event Time Altitude Azimuth Distance (km) Brightness Sun altitude
Rises 23:12:18 0° 210° (SSW) 3,334 ? -7.2°
Reaches altitude 10° 23:15:17 10° 227° (SW) 2,414 ? -7.4°
Maximum altitude 23:19:05 20° 273° (W) 1,849 ? -7.6°
Drops below altitude 10° 23:22:57 10° 319° (NW) 2,451 ? -7.9°
Sets 23:26:02 0° 336° (NNW) 3,403 ? -8.1°
